Погода в Вознесенской

Россия / Республика Ингушетия     43°32′42″N   44°45′09″E
темп.,
°C
ветер,
м/с
пор.,
м/с
влажн.,
%
обл.,
%
осадки,
мм/ч
давл.,
гПа
погр.,
м
25 января, пн
пн2500:000ююз116196 0.0 102022
03:000зсз115997 0.0 102021
06:000з226796 0.0 102023
09:00+2юз005698 0.0 102022
12:00+5всв114877 0.0 1019163
15:00+5всв235555 0.0 1018233
18:00+2вюв22700 0.0 102023
21:00+1юв22710 0.0 101922
26 января, вт
вт2600:00+1ююв11700 0.0 101922
03:00+1з126713 0.0 101822
06:00+1ююз0166100 0.0 101822
09:00+3зсз1157100 0.0 102022
12:00+5зсз345590 0.0 1019288
15:00+6з355646 0.0 1020300
18:00+3зюз236433 0.0 102122
21:00+3ю116317 0.0 102122
27 января, ср
ср2700:00+2ююв226563 0.0 102122
03:00+2юв227031 0.0 102022
06:00+1юв23696 0.0 101925
09:00+3вюв236329 0.0 1017119
12:00+5всв236399 0.0 1014270
15:00+6в357377 0.0 1012429
18:00+3в2289100 0.0 101325
21:00+2ююв1190100 0.0 101122
28 января, чт
чт2800:00+2з1287100 0.0 101022
03:00+2зсз2385100 0.0 100931
06:00+1зсз2285100 0.0 100825
09:00+3з237988 0.0 100790
12:00+7сз236188 0.0 1006169
15:00+8ссз225975 0.0 1004210
18:00+5ссв117466 0.0 100522
21:00+4зсз338683 0.0 100654
29 января, пт
пт2900:00+3з478977 0.0 1007133
03:00+2з499248 0.0 1008289
06:00+2зюз349065 0.0 1008101
09:00+3ююз228782 0.0 100951
12:00+8св116656 0.0 1007438
15:00+9всв226329 0.0 1007753
18:00+6св238172 0.0 100977
21:00+5в128986 0.0 101123